Flag for Australia Weather past 2 weeks in Adelaide, South Australia, Australia

Now
52 °F

Clear.


Feels Like: 49 °F
Forecast: 53 / 66 °F
Wind: 9 mph from Northeast

Location: Adelaide Airport

Current Time: Aug 31, 2014 at 4:36:58 AM

Latest Report: Aug 31, 2014 at 3:30 AM


Visibility: 10 mi

Pressure: 29.98 "Hg

Humidity: 58%

Dew point: 37 °F

Location of AdelaideLocation

Historic Weather in Adelaide — Graph

°F

Adelaide temperature yesterday

Maximum temperature yesterday: 73 °F (at 11:30 AM)
Minimum temperature yesterday: 45 °F (at 4:30 AM)
Average temperature yesterday: 60 °F

Past Weeks' High & Low Weather Summary

 TemperatureHumidityPressure
High73 °F (Aug 30, 11:30 AM)100% (Aug 18, 7:00 AM)30.48 "Hg (Aug 18, 7:00 AM)
Low37 °F (Aug 21, 6:30 AM)23% (Aug 30, 4:30 PM)29.98 "Hg (Aug 31, 2:30 AM)
Average54 °F70%30.27 "Hg
* Reported Aug 16 2:30 AM — Aug 31 2:30 AM, Adelaide, Weather by CustomWeather, © 2014

Note: Actual official high and low records may vary slightly from our data, if they occured in-between our weather recording intervals... More about our weather records

Advertising

Adelaide weather history for previous 24 hours

 ConditionsComfort  
Time TempWeatherWind HumidityBarometerVisibility
2:30 AM
Aug 31
52 °FClear.10 mph58%29.98 "Hg10 mi
2:00 AM54 °FClear.8 mph58%30.01 "Hg10 mi
1:30 AM54 °FClear.8 mph54%30.01 "Hg10 mi
1:00 AM50 °FClear.7 mph67%30.01 "Hg10 mi
12:30 AM54 °FClear.7 mph58%30.01 "Hg10 mi
12:00 AM55 °FClear.8 mph55%30.01 "Hg10 mi
11:30 PM
Aug 30
55 °FClear.10 mph55%30.04 "Hg10 mi
11:00 PM55 °FClear.10 mph55%30.04 "Hg10 mi
10:30 PM57 °FClear.10 mph51%30.04 "Hg10 mi
9:30 PM59 °FClear.8 mph51%30.07 "Hg10 mi
9:00 PM57 °FClear.8 mph55%30.07 "Hg10 mi
8:30 PM57 °FClear.7 mph55%30.07 "Hg10 mi
8:00 PM59 °FClear.6 mph51%30.07 "Hg10 mi
7:30 PM59 °FClear.6 mph48%30.07 "Hg10 mi
7:00 PM61 °FClear.6 mph45%30.07 "Hg10 mi
6:30 PM61 °FClear.7 mph45%30.07 "Hg10 mi
6:00 PM64 °FClear.5 mph40%30.07 "Hg10 mi
5:30 PM66 °FClear.7 mph37%30.07 "Hg10 mi
5:00 PM70 °FSunny.8 mph27%30.07 "Hg10 mi
4:30 PM72 °FSunny.12 mph23%30.07 "Hg10 mi
4:00 PM72 °FSunny.9 mph27%30.09 "Hg10 mi
3:30 PM72 °FSunny.10 mph27%30.09 "Hg10 mi
3:00 PM73 °FSunny.10 mph27%30.09 "Hg10 mi
2:30 PM72 °FSunny.10 mph27%30.09 "Hg10 mi
2:00 PM72 °FSunny.12 mph33%30.12 "Hg10 mi
1:30 PM72 °FSunny.10 mph31%30.12 "Hg10 mi
1:00 PM70 °FSunny.12 mph38%30.12 "Hg10 mi
12:30 PM72 °FSunny.13 mph44%30.15 "Hg10 mi
12:00 PM72 °FSunny.10 mph36%30.15 "Hg10 mi
11:30 AM73 °FSunny.10 mph29%30.18 "Hg10 mi
11:00 AM72 °FSunny.12 mph33%30.18 "Hg10 mi
10:30 AM70 °FSunny.13 mph35%30.18 "Hg10 mi
10:00 AM68 °FSunny.10 mph43%30.21 "Hg10 mi
9:30 AM64 °FSunny.8 mph49%30.21 "Hg10 mi
9:00 AM61 °FSunny.6 mph55%30.21 "Hg10 mi
8:30 AM57 °FSunny.6 mph63%30.21 "Hg10 mi
8:00 AM54 °FSunny.5 mph72%30.21 "Hg10 mi
7:30 AM50 °FSunny.6 mph82%30.21 "Hg10 mi
7:00 AM48 °FSunny.5 mph76%30.21 "Hg10 mi
6:30 AM46 °FSunny.7 mph82%30.21 "Hg10 mi
4:30 AM45 °FClear.6 mph87%30.21 "Hg10 mi
4:00 AM46 °FClear.7 mph87%30.21 "Hg10 mi
Weather by CustomWeather, © 2014

See weather overviewHow to use our weather pages